Wind_Speed
22 20 21 27 26 22 18 16 15 17 20 21 19 16 17 17 17 18 18 17 17 17 16 16 14 12 13 12 10 9 9 12 12 12 10 8 8 8 7 7 7 8 9 10 10 11 11 12 12 12 12 13 14 15 15 16 17 17 18 18 18 19 19 19 18 18 18 17 17 17 17 18 19 19 20 20 21 21 21 21 21 21 21 21 20 19
20 17 17 23 27 25 20 16 14 16 20 20 19 17 15 15 15 13 15 16 16 15 13 14 14 12 12 12 11 10 11 12 13 12 10 9 9 9 8 8 8 9 10 11 11 11 12 12 11 11 11 11 12 13 14 15 16 16 17 18 18 18 19 19 20 20 20 19 18 18 18 18 18 19 19 19 19 19 20 20 20 20 20 20 20 20
17 14 13 17 24 24 21 17 13 13 17 18 18 17 15 14 13 10 12 14 14 15 13 12 13 11 11 12 12 12 13 14 13 11 10 10 10 10 9 10 9 9 10 10 10 10 11 10 10 10 10 11 11 12 13 13 14 15 16 17 17 18 19 19 19 20 20 20 20 19 19 19 19 19 19 19 18 18 18 19 18 18 19 19 18 18
17 14 11 13 20 21 18 15 13 12 13 15 17 16 12 12 11 9 10 11 12 12 11 11 12 10 10 12 13 13 13 14 12 10 10 9 9 10 11 11 11 10 10 9 9 9 9 9 9 9 9 10 10 10 11 12 13 14 15 16 16 17 17 18 18 19 19 19 19 19 19 19 19 19 19 19 18 18 18 18 17 17 18 17 17 17
14 14 10 12 16 16 14 13 12 12 10 11 15 14 9 10 11 8 8 9 9 9 9 11 11 10 10 12 13 14 14 13 12 9 9 9 9 11 12 11 11 11 10 10 10 10 9 9 10 9 9 9 9 9 10 10 12 13 14 14 15 16 16 17 17 17 17 17 17 17 17 17 17 17 16 16 16 16 16 16 16 16 16 16 15 16
10 9 7 10 11 10 11 10 11 11 9 9 11 9 5 8 10 7 8 9 8 8 8 10 10 9 8 10 12 13 13 14 13 11 10 10 11 12 12 11 11 10 10 10 10 10 9 9 9 8 8 8 8 8 8 9 10 11 12 13 14 15 15 15 15 15 15 15 14 14 14 14 14 14 15 15 14 14 14 14 14 15 15 14 14 14
11 8 4 4 5 7 10 7 9 11 8 5 5 5 4 7 9 7 9 10 9 8 6 7 9 9 7 8 12 13 13 14 14 13 13 12 10 10 11 11 10 8 9 9 7 7 8 7 6 6 7 7 7 7 8 8 9 10 11 12 13 14 14 14 13 13 13 13 13 13 13 13 14 14 14 14 14 13 13 13 13 13 13 13 13 13
11 9 3 3 4 4 5 3 6 9 6 5 8 6 8 10 9 8 11 11 9 8 6 5 7 8 8 10 12 12 13 14 15 14 15 14 10 8 9 10 9 8 9 7 6 6 7 6 6 7 7 7 7 8 8 8 8 10 11 11 12 12 12 12 12 12 13 12 13 13 14 14 14 14 14 14 14 14 14 14 14 14 13 13 13 13
8 7 5 4 2 2 1 3 7 6 2 4 6 7 12 12 11 11 11 10 8 8 7 5 5 6 10 13 12 12 12 13 14 14 16 15 11 8 8 9 9 8 8 7 8 8 7 7 8 8 8 7 7 8 7 7 8 9 10 11 11 11 11 12 12 12 12 12 13 13 14 14 14 14 15 15 15 15 15 14 14 14 14 14 14 14
4 3 3 7 4 1 1 2 4 5 2 2 2 6 12 13 12 10 10 10 8 8 7 6 6 6 9 13 13 12 11 12 13 15 17 17 14 9 7 8 10 9 9 10 11 9 8 8 8 8 8 7 7 7 6 7 8 9 10 11 11 11 12 12 12 12 12 13 13 13 13 14 14 14 15 15 15 15 14 14 14 14 14 14 14 14
4 2 4 8 5 4 5 7 7 3 3 6 8 9 12 13 8 8 9 8 8 8 6 5 5 6 7 11 13 12 10 12 14 15 17 18 15 9 7 9 11 9 10 11 12 10 8 8 8 7 7 6 6 7 7 8 9 10 11 11 11 12 12 12 12 12 12 12 13 13 13 14 14 14 14 14 14 14 15 15 15 14 14 14 15 15
9 6 3 5 5 10 10 14 13 6 4 5 7 8 10 9 4 5 5 5 6 5 5 5 5 5 6 9 12 11 11 13 14 14 16 17 14 10 9 11 10 10 11 12 11 9 8 8 7 7 6 6 7 8 8 8 9 10 11 11 11 11 11 11 11 12 12 12 13 13 13 14 14 14 14 14 15 16 16 16 16 16 16 16 16 17
12 11 8 6 10 15 11 12 15 9 3 1 3 3 5 8 6 4 1 2 3 4 5 4 5 7 8 10 11 10 13 14 13 15 16 15 14 12 12 11 11 12 12 11 10 10 9 8 8 7 6 7 8 8 8 9 10 10 10 11 11 11 11 11 11 12 12 13 13 13 14 14 14 15 15 15 16 17 17 17 17 17 17 17 17 17
10 12 11 7 9 13 9 7 13 11 5 4 3 1 4 9 8 4 1 3 1 4 4 2 5 8 7 9 9 10 15 16 15 16 16 14 14 13 11 11 12 12 11 10 10 10 9 8 7 7 7 7 7 8 9 9 9 9 10 10 10 10 11 11 11 11 12 12 12 13 13 14 14 15 15 16 16 17 17 17 17 17 17 17 17 16
9 9 10 9 7 6 3 5 10 11 7 6 5 3 4 6 6 3 2 2 2 4 3 1 4 7 7 9 8 11 15 16 16 16 14 12 13 12 9 10 11 11 9 9 10 10 9 8 8 8 8 7 7 8 8 8 8 8 9 9 9 9 10 10 10 11 11 12 12 12 13 14 14 14 15 15 15 15 15 15 15 15 15 15 16 16
7 4 5 8 6 4 2 3 9 11 10 8 7 7 6 5 5 4 1 4 4 3 3 3 4 7 8 9 9 12 17 17 17 15 12 12 12 11 10 11 11 10 10 10 11 10 10 10 9 8 7 6 6 6 7 6 7 7 7 8 8 8 8 9 9 10 10 11 11 12 12 12 13 13 13 13 14 14 15 15 15 15 15 14 14 15
8 6 5 5 6 4 3 3 7 12 11 9 8 9 7 6 5 3 1 4 5 3 3 3 5 6 8 9 10 13 17 17 16 13 10 10 11 12 12 12 11 11 11 10 10 10 11 11 9 8 6 5 5 5 5 5 5 5 5 6 6 7 7 8 8 9 9 10 10 10 10 10 11 12 12 13 14 15 16 16 15 15 15 14 14 14
10 10 9 9 8 3 2 3 9 13 11 10 11 9 7 6 6 7 3 3 4 4 5 4 4 4 7 9 9 12 15 15 14 11 9 9 11 12 13 12 12 12 10 10 10 10 11 10 9 7 5 4 4 4 4 4 3 4 4 5 6 6 7 7 7 8 8 8 8 8 9 10 11 12 14 15 16 17 17 17 17 17 17 16 16 15
12 11 10 9 7 4 4 4 9 12 10 12 13 10 8 7 7 9 6 2 1 3 5 5 4 3 6 9 9 11 12 13 14 10 9 9 11 12 13 12 12 11 11 10 10 10 10 10 9 7 5 4 3 2 3 3 3 3 4 4 5 5 6 7 7 8 8 8 8 8 10 11 12 14 15 17 17 17 18 19 19 19 19 18 17 17
13 13 9 8 8 6 7 7 8 10 12 14 11 7 9 10 8 10 9 6 6 7 6 6 5 4 7 9 10 11 11 12 13 10 8 9 11 12 13 12 10 10 10 10 10 10 10 11 10 8 5 3 2 2 2 3 3 3 3 3 4 5 6 7 7 8 8 8 9 10 11 12 14 15 16 17 17 18 19 20 21 22 21 20 19 17
13 14 12 8 7 7 8 8 9 11 12 12 7 4 6 8 9 10 10 10 10 9 7 5 6 7 9 10 11 11 12 12 12 10 9 9 10 11 13 11 9 10 10 10 11 11 10 11 11 9 6 4 3 3 3 3 3 3 3 3 4 5 6 6 7 7 8 9 10 11 12 13 14 15 16 17 18 20 22 23 24 24 23 22 21 19
13 15 15 10 7 8 9 8 7 8 9 9 7 5 4 6 9 9 8 10 11 9 7 6 7 9 10 11 12 11 11 12 13 12 11 9 9 10 11 10 9 9 9 9 10 11 11 11 11 10 8 5 4 3 3 3 3 3 3 3 4 5 6 6 7 8 9 10 11 12 12 14 15 16 17 18 19 21 24 25 25 25 25 23 22 21
15 15 16 14 12 12 12 8 4 6 9 10 9 7 6 8 11 10 8 10 12 10 9 9 10 11 12 12 12 12 12 13 13 13 12 9 9 10 10 9 8 7 7 8 9 10 11 10 10 10 9 6 5 4 3 4 4 4 4 4 5 6 7 8 8 9 10 11 12 12 13 15 15 17 18 19 21 23 25 26 27 27 26 24 22 20
16 16 17 17 17 15 13 10 7 9 10 11 10 9 8 9 11 11 11 13 15 14 12 12 11 12 12 11 11 11 12 14 15 14 13 10 9 10 9 8 7 6 6 7 8 9 10 10 9 10 9 7 6 5 5 5 5 5 5 6 6 7 8 9 9 10 10 11 12 13 14 15 16 17 18 19 21 23 25 26 27 27 26 24 23 22
16 15 17 19 20 18 14 11 10 9 9 10 10 9 10 11 11 12 13 15 16 15 14 13 13 13 11 9 9 10 12 14 15 14 13 10 9 11 10 9 8 7 7 8 9 9 10 10 9 9 10 9 7 6 6 6 6 6 6 6 7 7 8 9 9 10 10 11 12 13 14 15 16 17 17 19 21 24 25 27 27 28 27 26 25 25
16 14 17 21 20 17 14 11 10 9 9 9 8 7 9 12 13 14 14 15 16 16 15 14 13 13 12 10 10 11 12 13 13 13 13 11 10 11 11 10 9 9 8 8 10 10 10 10 9 9 10 9 8 7 7 7 7 7 6 6 6 7 8 8 9 9 10 11 12 14 15 15 15 16 17 20 23 25 26 27 28 29 28 27 27 26
17 15 18 21 19 16 15 14 10 9 9 8 6 7 9 12 13 13 14 15 15 15 15 14 14 14 13 12 10 10 11 13 12 13 13 12 10 10 11 10 10 10 9 9 10 11 11 10 9 9 10 9 9 9 9 8 7 7 6 6 6 7 7 8 9 10 11 12 12 13 13 13 14 16 18 21 23 24 26 27 28 30 30 30 29 28
18 18 20 20 18 17 17 16 14 11 11 10 8 8 9 11 12 12 13 14 14 14 15 15 14 13 12 12 11 10 11 11 13 14 14 12 10 9 10 10 9 10 9 9 10 11 11 10 9 11 11 11 10 10 11 11 9 8 8 8 9 9 10 10 12 13 13 13 12 12 12 13 14 16 19 21 22 24 25 27 29 31 32 32 31 29
20 20 21 21 19 19 17 16 15 13 13 13 13 12 10 10 12 13 13 13 13 15 15 15 14 13 13 14 13 11 9 9 13 14 13 12 11 10 10 9 9 9 10 9 9 11 11 10 9 10 11 11 10 9 9 10 10 10 10 10 11 12 13 13 13 14 14 14 13 13 13 14 15 17 19 22 24 26 28 30 32 34 35 35 34 31
19 20 22 21 19 18 17 16 15 14 14 14 15 15 13 12 12 13 14 13 13 15 16 15 15 14 15 16 14 12 10 10 13 14 13 12 11 10 10 10 9 10 10 10 8 9 9 8 7 6 7 8 8 8 8 8 9 9 9 9 10 12 13 14 14 15 15 15 15 15 15 15 16 18 21 24 26 30 32 35 36 37 39 39 37 33
17 20 21 20 18 18 17 16 16 16 16 16 16 16 15 14 13 14 15 14 14 14 15 15 15 15 16 17 17 15 13 13 14 13 13 13 11 10 11 11 11 11 11 11 9 8 7 7 6 5 6 7 8 9 9 9 9 9 9 10 10 12 13 15 16 17 17 18 19 19 18 18 19 21 23 25 29 34 37 39 39 39 40 40 39 35
16 18 21 21 19 17 17 17 18 19 20 18 16 15 16 16 15 16 15 14 14 15 16 16 16 16 17 17 17 17 16 15 14 14 15 14 13 12 13 13 12 11 12 12 12 11 10 8 8 9 10 11 12 12 13 13 13 13 13 14 14 14 16 18 19 20 21 22 22 23 23 24 24 24 25 28 32 37 41 41 40 40 40 41 40 37
17 15 17 21 19 17 18 19 19 21 22 19 15 14 16 16 16 16 15 14 14 15 16 17 17 18 18 16 15 16 15 15 15 15 16 16 16 15 15 15 14 12 11 12 12 12 12 11 11 11 13 15 16 17 18 19 19 18 19 20 20 20 20 22 23 24 25 25 25 25 25 26 26 27 28 31 36 40 43 43 42 41 41 42 42 39
19 15 16 19 18 17 19 21 21 22 21 18 16 16 16 16 15 15 15 15 15 15 15 16 17 18 17 15 15 15 14 14 14 14 15 17 18 18 17 17 16 13 11 13 13 13 13 13 12 12 14 15 17 18 20 20 21 21 21 22 23 23 23 24 25 27 28 29 29 27 26 26 27 28 31 33 37 41 45 45 44 44 43 44 43 41
21 20 20 20 18 17 19 21 21 21 20 19 18 16 16 16 15 15 15 15 14 14 14 16 18 18 17 16 16 15 15 14 13 12 13 15 18 18 18 18 17 15 13 13 13 13 13 13 13 14 15 16 17 19 20 20 21 22 22 23 24 25 25 26 28 29 31 32 31 30 28 28 28 30 31 33 37 42 46 46 46 46 45 45 45 42
23 23 23 22 20 18 18 20 21 21 21 21 19 17 17 17 16 16 16 16 16 16 16 17 19 21 19 17 17 16 15 15 13 11 12 15 18 19 18 18 18 17 15 13 13 12 12 13 14 15 16 17 18 20 21 21 22 23 23 24 25 26 27 27 29 30 32 32 31 29 28 28 29 30 31 33 38 43 46 47 48 47 47 47 47 45
26 26 24 23 22 21 21 21 22 22 23 22 20 18 18 19 18 17 17 18 19 19 18 17 18 21 21 19 18 17 16 16 15 14 13 15 18 18 17 18 18 17 17 16 15 16 16 17 18 18 18 19 20 21 22 23 24 24 25 25 26 27 28 29 30 31 33 32 30 29 28 28 30 31 32 35 40 45 47 49 49 49 49 50 50 49
28 29 28 26 26 25 24 24 24 25 24 22 21 20 20 20 20 18 18 21 21 19 18 17 18 19 19 18 18 18 18 19 18 16 14 14 16 17 17 17 17 17 18 18 19 21 22 21 22 22 22 22 23 24 24 25 26 27 27 27 28 29 30 31 32 33 34 34 32 30 30 31 33 34 36 38 43 47 49 51 52 52 53 54 54 53
28 30 31 30 30 29 27 27 27 26 25 22 22 24 23 23 22 21 21 22 20 18 18 19 20 19 18 17 18 20 21 21 19 17 16 16 17 17 18 19 19 19 20 21 22 25 25 24 23 24 24 25 26 27 27 28 28 29 30 30 30 31 32 33 34 35 36 36 33 32 32 34 37 39 39 41 45 49 52 54 55 55 56 57 56 55
29 30 32 33 33 31 30 30 29 28 27 25 25 26 27 26 25 24 23 22 20 19 20 22 21 20 19 19 20 21 21 20 20 20 20 20 21 20 20 20 20 20 21 23 25 26 25 25 25 25 26 27 28 29 30 30 30 31 32 32 33 33 34 35 36 38 38 37 35 34 34 37 40 42 43 45 48 52 56 57 58 59 59 58 56 56
31 32 33 34 34 33 32 32 31 30 29 29 27 27 27 28 28 27 26 25 23 22 23 23 22 21 21 21 21 21 21 22 22 23 23 23 23 23 21 20 19 20 21 23 24 24 24 26 27 27 27 28 29 30 31 31 32 32 32 33 34 35 36 38 39 40 40 38 37 36 38 41 44 46 47 49 52 56 59 60 61 62 60 57 56 57
35 35 35 35 34 34 34 34 33 32 32 31 30 29 29 29 29 29 28 27 25 24 24 24 24 23 23 22 23 23 24 24 24 24 24 24 24 24 22 21 20 21 22 22 23 24 26 28 29 29 29 29 30 31 31 32 32 33 34 35 36 37 39 40 42 42 42 40 39 40 42 45 47 49 50 52 54 59 62 63 64 63 60 58 58 58
37 37 36 35 35 35 35 35 35 34 34 32 31 31 31 31 31 32 31 28 26 24 24 25 25 25 24 24 25 25 26 26 26 26 26 27 27 26 25 24 24 24 24 25 26 28 30 31 31 30 30 30 30 31 32 33 33 34 36 37 39 40 42 43 44 44 42 40 42 44 46 47 48 50 52 54 58 61 64 65 65 63 60 59 60 60
39 38 37 37 37 37 35 35 34 34 34 33 31 31 32 33 33 34 33 31 28 27 26 26 27 27 27 27 27 27 27 27 27 27 27 28 28 27 28 28 28 29 29 30 31 31 32 32 32 31 31 30 31 32 33 34 35 37 39 41 43 44 44 44 44 42 41 42 45 47 48 49 50 51 54 57 61 63 65 65 65 62 61 61 61 60
40 40 39 39 39 39 38 37 36 35 35 34 34 33 33 33 34 35 34 32 31 30 29 29 29 30 30 30 30 30 29 28 27 27 28 29 29 30 31 32 33 33 33 33 32 31 31 31 31 31 31 31 32 33 34 36 38 40 42 45 46 45 42 41 41 41 42 45 47 48 49 51 52 54 57 61 63 65 65 64 63 62 62 62 61 60
40 41 40 40 40 40 40 39 39 38 37 36 36 36 36 35 35 37 37 35 33 33 33 33 34 33 32 31 31 32 32 31 30 30 30 30 31 33 34 35 34 34 33 33 32 31 31 31 31 31 32 32 33 34 37 39 40 43 45 46 44 41 39 39 40 43 45 48 49 49 51 53 55 58 60 62 64 65 64 63 62 61 62 61 61 61
42 42 41 41 41 41 41 41 40 39 39 39 39 39 39 39 39 40 41 38 36 36 36 37 38 37 35 32 32 33 35 34 33 33 34 35 35 34 35 35 36 35 35 34 34 34 34 32 32 32 33 34 35 37 39 41 42 45 46 45 42 40 39 41 43 45 47 49 50 52 55 57 59 60 62 63 65 64 62 62 62 62 62 61 61 60
43 43 43 42 42 42 42 42 42 41 41 41 41 41 41 42 41 41 41 40 38 38 39 41 41 41 39 36 33 33 36 37 37 37 36 36 36 36 35 36 36 36 36 36 36 36 35 34 34 35 36 37 38 40 42 43 45 46 45 44 42 41 42 44 45 47 50 52 54 57 59 60 60 61 63 65 64 62 61 62 62 62 62 61 59 58
44 44 44 44 44 44 44 44 44 44 44 44 44 44 44 44 43 43 43 42 41 41 41 42 42 42 41 39 36 35 37 40 40 39 37 36 36 36 36 36 36 36 37 37 37 37 36 36 37 39 40 41 42 43 45 46 47 47 45 44 44 44 45 48 51 53 55 57 58 59 60 59 60 62 64 63 61 61 62 63 62 61 60 58 57 57
45 45 46 46 46 46 46 46 46 46 46 46 46 47 47 47 46 46 45 45 45 44 43 42 41 40 40 40 40 39 39 41 41 40 38 38 37 36 37 37 37 37 38 39 39 39 38 39 41 43 44 45 46 47 48 49 49 49 48 48 49 50 52 55 57 59 59 59 60 59 58 59 61 63 63 61 60 61 62 62 61 59 57 56 57 57
47 47 47 47 48 47 47 47 48 48 48 48 48 48 48 48 47 46 45 45 45 45 45 43 42 40 40 40 40 40 41 42 42 41 39 38 38 38 39 39 38 38 39 40 41 41 42 43 45 45 46 47 49 50 52 52 52 52 53 54 55 56 57 59 60 60 59 59 58 58 58 60 62 62 60 60 61 62 60 58 56 55 55 55 55 53
Wind_Direction
53 48 63 69 60 55 62 66 71 80 81 77 70 67 76 85 90 93 91 87 86 86 92 95 96 107 116 116 117 118 114 102 91 85 78 71 68 63 55 48 34 22 22 24 23 19 20 20 19 23 28 33 36 38 40 41 41 41 42 43 45 46 46 46 47 48 48 48 48 48 49 51 52 52 52 51 51 51 52 53 53 54 55 55 54 54
49 36 47 64 57 44 45 56 71 82 84 77 67 60 65 77 82 90 95 93 91 90 91 94 94 97 101 99 91 85 82 75 67 61 54 46 47 44 36 38 37 26 20 17 15 12 11 14 16 19 23 29 34 37 39 42 43 43 44 45 46 48 48 49 49 49 50 51 52 52 52 53 53 52 52 52 50 49 49 50 49 49 51 52 52 53
52 31 19 42 52 44 34 42 60 72 80 80 69 57 54 66 73 81 93 98 98 94 91 94 94 89 87 88 83 74 72 67 58 47 38 33 32 27 20 25 33 33 27 18 13 12 6 4 10 16 20 26 31 36 40 43 45 45 46 47 47 48 50 50 51 51 52 53 54 55 55 56 55 54 54 53 50 48 47 48 47 46 47 47 46 47
46 28 2 19 45 46 31 35 56 60 70 77 65 52 51 68 73 70 80 93 99 91 86 87 87 87 84 82 78 71 69 68 63 50 39 36 27 16 11 13 17 25 27 17 11 14 6 1 8 13 18 24 29 35 41 44 46 47 48 49 49 49 50 50 50 51 51 52 53 54 55 55 55 54 54 53 51 50 49 48 47 46 46 45 43 43
41 25 5 14 39 52 37 34 54 57 59 64 53 41 44 72 76 73 77 85 96 94 89 83 78 79 79 80 79 68 61 63 64 51 38 36 23 11 9 7 8 16 21 15 9 8 9 7 8 11 16 23 30 37 43 48 49 49 50 50 50 50 49 49 48 48 48 48 49 48 49 49 49 48 48 48 48 48 49 49 48 48 47 46 44 43
64 47 24 16 25 40 31 32 55 56 47 46 42 26 25 68 70 78 85 77 82 87 84 78 71 71 71 77 78 64 56 60 61 54 49 43 21 7 5 3 7 13 15 16 10 2 8 14 8 7 18 25 32 42 47 52 54 53 52 51 50 48 47 46 45 45 45 44 42 40 40 40 38 37 38 39 41 43 45 47 47 47 47 46 45 43
96 100 58 352 334 2 6 25 63 61 52 18 5 5 10 43 49 65 78 66 63 67 64 65 68 68 63 65 64 53 50 56 56 56 59 54 30 4 356 359 9 14 11 17 18 5 10 22 18 16 23 28 39 50 53 55 59 58 56 53 50 47 44 43 41 40 40 39 37 34 34 33 33 32 33 35 37 39 42 44 45 45 45 45 45 44
122 129 141 260 286 356 4 13 47 56 59 306 304 347 4 15 44 74 79 66 55 51 49 61 70 65 54 54 55 46 44 48 48 52 54 51 38 10 355 0 12 12 8 20 32 27 28 39 44 37 30 32 44 53 55 58 62 61 58 55 52 48 44 42 39 38 37 37 36 34 33 33 34 35 36 37 39 40 40 42 44 44 44 44 44 43
121 126 170 231 276 85 117 306 326 340 341 283 307 351 358 17 60 81 80 77 65 45 44 66 82 65 51 51 52 46 41 41 42 46 48 46 40 26 8 6 18 23 25 41 47 43 43 45 47 43 36 36 45 52 55 60 64 62 59 56 53 49 45 43 42 41 40 40 41 39 38 37 37 38 39 40 41 42 42 42 43 44 44 44 42 40
109 92 219 255 283 140 168 302 312 304 260 152 46 3 2 24 60 80 85 95 88 57 50 78 92 70 55 52 49 44 41 41 39 38 42 46 47 39 17 13 31 43 48 52 54 52 49 46 45 43 40 41 50 57 58 60 63 62 60 57 54 51 48 46 46 45 44 45 46 45 44 43 41 41 41 41 42 44 45 44 44 43 42 42 42 41
136 90 248 258 258 162 120 98 109 112 127 102 53 22 14 19 48 82 84 98 95 68 59 80 75 59 59 53 42 37 39 40 39 35 36 45 52 44 24 26 38 52 59 58 56 57 56 54 51 47 48 54 59 61 61 61 61 60 60 58 57 55 52 50 50 50 49 49 48 47 46 45 45 44 44 43 43 44 43 42 41 39 36 35 35 36
121 102 183 211 174 155 127 107 116 118 109 85 36 20 10 3 35 72 63 92 102 85 81 78 57 61 74 50 34 29 32 35 37 34 34 45 56 50 35 37 42 50 55 54 54 59 61 61 58 52 53 62 66 64 61 62 62 61 62 61 60 58 57 55 53 52 51 50 50 48 47 46 45 44 43 42 41 40 38 37 36 35 34 32 30 30
121 109 121 140 158 171 162 122 126 137 150 186 344 1 334 327 349 17 14 157 122 80 67 64 71 86 80 49 36 32 30 32 37 34 33 43 53 48 35 32 42 48 48 46 51 59 61 63 63 57 52 57 67 70 66 64 64 65 64 63 62 60 59 57 55 53 52 51 50 48 47 47 45 43 41 40 38 36 34 32 30 29 29 29 28 27
139 130 126 127 154 173 182 148 139 141 163 234 259 252 277 291 314 336 184 176 112 59 34 35 98 90 65 38 35 37 33 32 32 28 28 39 50 47 31 24 39 48 46 47 54 59 60 61 63 61 54 50 57 66 67 66 66 67 66 63 61 59 57 56 54 54 53 52 50 48 47 45 43 42 40 38 37 35 32 30 27 25 23 22 22 21
159 155 144 141 163 178 188 187 167 156 174 224 232 228 257 269 283 283 190 142 91 67 33 31 94 70 39 21 23 35 35 30 28 24 17 29 49 51 33 27 41 50 51 52 54 56 56 52 52 53 53 50 52 58 64 66 67 68 66 63 60 57 56 55 55 54 53 52 49 46 44 43 41 40 38 37 35 33 31 28 25 21 18 16 14 12
179 179 154 141 161 188 169 187 186 178 191 214 210 204 229 258 263 259 211 125 111 75 52 54 53 43 26 16 22 34 34 30 30 26 10 15 39 47 35 28 37 48 51 52 50 47 46 41 38 41 44 49 57 58 60 64 65 66 64 62 58 54 53 52 51 50 48 46 44 41 40 39 38 36 34 31 29 27 25 22 17 14 12 9 6 4
188 188 205 179 150 148 132 149 191 198 207 216 207 196 210 243 235 209 156 116 105 37 20 33 27 20 8 11 22 23 25 31 35 31 15 12 22 33 34 24 26 39 43 44 42 36 35 30 25 28 31 38 54 60 60 60 62 65 64 59 55 50 48 46 44 43 42 40 39 37 34 32 28 25 21 19 19 19 16 11 7 6 4 1 358 356
192 186 200 196 165 169 229 169 184 197 206 210 215 216 213 222 189 148 121 85 73 5 332 330 341 343 349 7 17 5 9 31 43 37 25 20 16 26 34 23 18 30 36 36 32 25 26 22 14 15 17 20 38 51 53 55 57 59 57 50 46 43 40 38 35 33 31 29 28 24 20 17 13 10 9 10 9 7 2 360 358 357 356 354 353 352
191 179 185 189 172 209 247 205 189 196 199 198 210 227 213 197 165 149 151 134 136 294 295 288 287 316 353 2 1 348 355 28 47 41 26 22 15 22 32 23 13 20 25 25 21 16 19 18 12 9 6 6 19 32 37 43 46 43 42 40 35 31 28 25 22 20 18 15 12 8 6 5 2 1 2 2 359 355 353 353 353 351 349 347 347 346
185 171 182 189 174 197 223 222 207 196 197 197 200 214 204 191 178 173 176 183 212 242 255 260 275 326 348 342 337 337 351 20 40 42 30 20 9 14 26 23 12 11 14 15 11 7 12 17 15 8 4 360 348 357 10 15 27 26 24 31 25 18 17 12 8 7 4 359 357 357 357 356 355 355 355 352 350 349 350 351 350 349 347 347 347 347
189 174 184 189 176 194 212 217 206 194 201 206 194 192 217 209 191 185 184 193 221 248 253 262 296 316 318 316 323 335 347 4 22 30 28 15 0 3 15 16 10 7 8 8 3 358 3 13 13 5 4 2 350 349 347 347 1 355 353 14 12 6 5 359 355 353 350 346 347 349 350 349 348 346 346 345 345 348 350 350 348 346 345 346 347 348
198 179 181 190 197 211 221 220 203 199 213 216 204 204 234 219 194 193 199 203 225 256 267 269 280 288 300 309 317 331 340 346 0 12 15 9 353 351 2 8 7 5 4 1 356 353 357 7 8 360 358 360 353 345 329 324 327 324 329 345 346 346 342 335 334 336 335 335 338 341 341 340 340 340 341 343 346 349 349 347 345 342 341 341 342 342
208 196 194 203 212 219 233 239 196 187 208 217 223 224 220 207 200 211 223 211 214 236 257 265 266 277 297 309 312 322 329 332 345 354 358 2 347 339 351 0 1 0 357 355 354 351 351 358 359 352 351 351 347 343 332 320 312 309 313 319 325 326 321 318 323 326 327 329 333 335 335 336 336 337 340 344 346 347 345 343 342 339 336 334 332 334
206 206 206 211 219 223 234 241 213 198 210 221 230 231 223 216 209 213 219 214 214 225 246 257 262 274 291 304 307 311 315 320 330 335 340 350 341 332 342 348 348 349 347 349 353 348 344 347 348 343 343 344 343 344 340 329 318 310 310 314 319 318 315 317 321 322 324 328 330 331 332 334 335 337 340 343 342 341 342 343 343 341 336 330 326 330
207 207 207 212 221 227 233 240 236 232 237 240 237 230 226 228 223 215 211 212 219 231 246 255 261 272 286 299 304 308 310 311 314 316 322 336 334 327 332 337 336 338 341 344 346 344 339 337 336 333 334 340 343 340 335 331 321 310 309 316 317 315 314 317 317 316 319 325 329 330 331 333 335 337 339 338 338 340 343 344 344 343 340 332 327 327
211 209 209 214 222 229 235 243 242 240 249 250 244 236 229 229 229 225 220 219 226 237 249 258 266 275 284 290 295 304 307 303 303 308 314 324 324 320 325 330 329 328 334 337 338 341 337 330 328 327 324 327 332 330 326 323 317 311 314 316 311 308 309 309 309 311 319 328 332 331 331 333 335 337 337 338 340 343 343 343 343 342 340 334 327 321
213 209 210 216 224 232 239 249 250 243 246 245 237 234 233 234 235 233 232 233 237 244 249 255 262 270 279 284 284 286 288 291 296 298 301 307 311 312 315 321 320 319 326 331 334 339 337 331 327 321 316 319 327 329 325 320 315 310 306 304 304 306 308 311 315 320 329 335 332 326 326 330 334 337 338 340 341 341 340 341 341 339 336 331 326 321
211 207 207 212 221 229 234 242 244 238 243 249 246 237 232 235 241 241 239 238 244 250 251 254 261 266 273 276 270 261 263 272 279 283 290 300 306 306 306 310 312 314 319 327 334 337 337 335 331 324 322 326 330 328 322 319 321 321 321 322 322 321 321 324 325 327 332 332 323 318 321 328 335 338 338 337 337 336 336 338 338 338 335 330 326 323
207 208 212 211 217 225 231 238 242 242 246 251 253 248 237 234 242 247 246 242 243 249 255 261 268 271 271 269 267 264 264 268 274 282 293 302 305 303 302 306 309 310 314 323 334 337 335 338 341 334 328 328 330 328 324 325 328 332 335 334 328 325 327 327 323 322 324 321 313 313 319 325 330 332 333 335 336 336 337 338 337 337 336 333 329 325
218 217 221 220 221 228 235 240 248 254 254 250 251 254 251 243 242 248 253 250 245 250 261 269 274 277 276 276 278 280 282 281 283 289 297 299 300 300 303 308 311 311 313 317 326 332 330 332 341 340 326 321 327 332 333 336 338 338 338 332 327 325 323 320 316 315 314 308 302 302 305 310 316 322 328 334 338 340 340 339 337 336 336 335 332 326
231 228 232 233 231 232 237 241 247 252 251 245 243 250 255 252 247 245 249 254 256 259 265 271 275 276 275 276 280 284 289 290 289 293 298 298 300 304 307 311 313 314 314 312 314 316 315 315 316 312 306 307 315 320 322 325 325 323 322 321 321 320 316 315 316 315 312 306 299 295 293 295 302 311 321 329 336 340 340 338 336 334 333 333 331 324
240 241 244 245 242 237 237 239 241 244 245 242 240 244 251 254 253 249 246 250 257 262 267 272 273 272 270 272 276 282 288 290 290 294 298 300 304 309 311 311 312 314 312 309 309 309 306 303 299 299 300 306 314 318 317 316 316 316 316 316 316 316 315 316 318 318 317 313 306 298 292 290 294 303 315 324 331 336 337 335 333 331 329 329 328 323
242 246 249 247 243 240 240 239 239 242 246 247 247 247 250 252 252 254 253 252 252 255 261 267 268 268 270 275 276 277 281 282 284 290 296 300 303 306 308 308 308 310 305 298 296 295 294 294 295 299 302 306 313 318 319 319 319 320 319 316 316 317 316 316 317 318 317 314 310 303 296 293 295 303 312 319 323 328 331 331 329 328 327 327 325 321
238 244 250 247 241 239 242 243 244 248 253 257 256 254 254 252 248 249 251 252 253 256 258 261 262 263 268 272 271 271 273 276 278 281 287 292 295 299 302 301 300 299 290 281 280 280 281 283 286 288 289 292 299 306 311 312 312 311 311 309 310 311 311 312 313 314 314 314 313 309 306 303 303 305 309 313 318 323 326 326 325 325 326 325 323 319
242 245 249 250 246 243 245 247 249 253 255 257 256 253 251 249 247 248 248 249 251 254 256 259 261 263 263 264 266 270 273 276 279 281 283 283 283 287 291 291 291 291 283 277 280 281 280 281 282 281 280 281 286 293 298 299 298 297 298 299 301 303 305 307 309 312 314 315 314 311 309 307 304 304 305 309 315 321 323 323 323 324 323 322 321 318
246 247 249 251 249 248 252 255 256 256 255 255 255 253 250 249 249 249 249 250 250 250 251 256 263 267 268 269 273 279 281 282 283 281 274 272 274 279 283 284 287 288 285 283 286 287 285 284 284 283 282 282 285 289 292 292 291 291 292 293 295 297 300 303 305 309 312 312 309 305 302 301 302 302 303 307 314 319 320 321 322 321 321 319 318 316
246 248 251 253 251 251 254 257 257 255 254 255 255 254 252 252 253 251 252 254 255 257 260 261 264 270 276 282 285 286 285 285 283 278 269 268 273 279 281 282 286 289 288 288 292 295 294 291 289 288 288 287 288 290 291 291 291 291 291 292 294 295 297 299 302 306 309 308 303 298 296 299 300 300 301 306 313 317 318 319 320 319 318 317 316 315
247 248 250 252 253 251 252 254 254 254 255 257 259 257 253 253 255 255 256 259 262 266 269 268 267 270 277 284 286 287 287 289 290 289 285 280 279 280 281 284 289 291 289 290 294 298 299 297 294 294 294 293 293 293 293 293 293 293 294 294 295 295 296 298 301 304 307 306 301 297 298 301 301 301 301 305 310 313 315 318 318 317 317 316 315 314
244 248 249 250 251 250 248 250 251 253 256 259 261 261 259 258 258 257 255 258 262 266 268 269 270 269 270 273 278 283 287 290 292 292 289 286 281 279 280 283 287 289 289 289 292 296 298 298 296 295 295 295 295 295 295 296 296 297 297 297 297 297 297 299 301 304 306 305 300 297 299 301 301 300 300 302 306 311 314 317 317 316 316 316 314 313
241 246 248 249 251 251 252 251 251 252 254 256 259 261 263 264 264 262 260 261 262 264 267 269 269 267 267 270 275 279 282 285 287 286 286 286 285 284 284 286 287 288 287 287 289 292 295 297 295 294 293 294 294 295 296 296 297 296 297 297 297 298 299 300 301 303 304 303 299 297 298 299 298 298 299 301 305 311 314 315 316 316 316 315 314 313
239 242 245 249 251 252 253 254 253 252 251 252 253 255 258 262 265 266 266 267 269 270 271 270 269 269 271 272 273 274 277 282 284 285 285 286 288 290 291 290 290 289 286 286 287 289 292 294 294 292 291 292 292 293 293 294 294 295 296 297 297 298 298 299 300 301 302 301 299 297 296 296 297 299 300 302 306 310 313 314 315 315 315 314 312 312
238 239 242 245 248 250 252 253 254 251 248 248 250 252 255 259 262 264 266 268 272 276 277 275 274 273 274 274 275 276 277 280 282 283 285 288 290 291 289 287 286 286 285 284 284 286 290 293 292 291 290 290 289 290 291 292 293 295 296 296 297 298 298 298 298 299 299 299 298 297 297 297 298 300 301 302 305 309 312 313 314 314 313 312 311 311
238 240 242 243 245 248 250 252 253 252 250 250 251 254 258 259 260 262 266 268 271 274 276 275 274 273 272 274 276 277 278 280 283 284 285 286 287 286 285 285 285 285 284 283 283 285 289 291 290 289 289 288 288 289 291 293 294 295 296 297 298 299 298 297 297 297 298 299 300 300 299 298 298 299 300 302 306 309 311 312 313 312 311 310 311 311
241 241 243 244 245 246 248 250 252 254 255 256 256 257 261 263 264 266 268 270 272 274 272 270 269 270 270 269 270 272 275 278 281 283 283 283 283 284 286 288 289 289 288 287 287 287 289 289 288 287 287 287 287 289 292 293 293 294 296 298 299 298 296 295 295 296 297 298 298 298 297 297 297 299 301 304 306 308 310 311 311 309 309 309 310 310
244 244 244 244 245 246 247 249 251 253 255 258 258 259 261 264 265 266 267 270 274 276 274 270 267 268 269 268 268 269 271 272 274 277 279 280 281 283 286 288 289 290 290 289 289 288 287 286 285 285 286 286 286 287 290 293 294 295 297 299 299 298 296 295 295 297 298 297 296 296 296 297 299 302 303 304 306 307 308 308 307 307 307 308 309 309
242 244 245 245 245 246 247 248 250 251 254 256 257 259 260 262 264 264 262 265 270 274 274 274 271 268 268 268 268 269 269 270 273 276 276 276 277 280 282 284 285 287 288 288 287 285 284 283 284 285 285 284 283 286 290 294 296 298 299 300 300 299 298 297 298 299 297 295 295 295 297 299 301 303 304 304 304 306 306 306 305 306 307 308 308 308
241 243 244 245 246 246 246 247 249 250 252 254 256 258 259 261 263 263 260 260 265 270 273 274 272 267 264 263 265 267 267 268 273 278 278 277 278 278 279 281 283 283 283 283 283 283 282 282 283 283 283 281 282 285 290 294 298 300 300 298 298 298 297 296 296 296 294 294 295 296 297 299 301 302 302 302 304 304 304 304 305 306 307 307 308 308
243 243 244 245 246 246 246 247 248 249 250 252 254 256 257 258 261 263 262 262 267 271 273 274 273 269 266 265 266 267 265 266 272 278 278 278 279 279 279 281 282 280 279 280 281 281 281 281 282 282 281 280 281 285 290 295 298 299 298 296 295 295 294 293 293 293 293 294 295 296 297 299 300 301 301 302 303 303 303 304 305 306 306 307 307 307
245 245 246 246 246 247 247 248 248 249 250 251 253 254 256 257 259 262 263 264 267 269 271 272 272 269 268 270 272 271 267 265 269 275 276 276 277 277 276 279 280 280 281 281 281 281 281 282 283 283 281 281 282 285 290 294 296 296 295 293 293 292 291 290 291 292 293 293 294 296 297 298 299 300 301 301 302 302 303 304 305 305 306 306 307 308
247 246 247 247 247 247 248 248 249 250 250 251 253 254 256 257 259 261 262 264 266 267 267 269 269 267 267 272 275 273 269 266 269 274 275 275 274 273 273 277 279 280 281 282 282 282 281 282 284 284 283 283 285 287 289 291 293 294 294 292 291 289 288 289 291 292 293 294 295 296 296 297 299 300 300 300 301 302 303 304 304 305 306 306 307 309
249 248 248 249 249 249 248 249 250 251 251 252 254 255 256 257 259 261 262 263 265 265 265 266 266 266 267 270 271 270 268 268 270 273 274 273 272 273 275 277 278 277 278 279 279 279 280 281 283 283 283 284 286 287 288 290 292 293 294 293 292 290 289 290 291 292 293 293 294 294 296 297 298 298 298 299 300 302 303 304 305 306 306 307 308 309
Height
5820 5821 5820 5820 5820 5821 5820 5819 5819 5818 5816 5816 5816 5817 5816 5816 5817 5816 5817 5817 5817 5817 5818 5818 5819 5821 5821 5820 5820 5819 5818 5817 5816 5816 5816 5817 5816 5816 5816 5816 5814 5813 5812 5811 5811 5810 5810 5809 5808 5808 5807 5806 5805 5805 5804 5803 5803 5802 5801 5800 5799 5798 5797 5796 5795 5793 5792 5791 5791 5790 5789 5788 5787 5786 5785 5783 5782 5781 5780 5779 5778 5777 5775 5774 5773 5772
5821 5822 5822 5821 5821 5822 5822 5821 5821 5820 5818 5817 5818 5818 5818 5818 5818 5818 5818 5818 5818 5819 5819 5819 5820 5821 5821 5820 5819 5818 5817 5816 5816 5816 5817 5817 5816 5816 5816 5816 5815 5813 5812 5811 5810 5810 5809 5809 5809 5808 5808 5807 5806 5805 5805 5804 5803 5803 5802 5801 5800 5799 5798 5797 5796 5795 5794 5793 5792 5791 5791 5790 5789 5788 5787 5786 5784 5783 5782 5781 5780 5779 5778 5777 5776 5775
5823 5823 5823 5822 5821 5822 5824 5823 5822 5822 5820 5819 5819 5819 5820 5819 5819 5820 5820 5820 5820 5820 5821 5821 5820 5821 5821 5820 5819 5818 5817 5816 5816 5817 5817 5817 5816 5816 5816 5815 5815 5814 5813 5812 5811 5811 5810 5810 5809 5809 5808 5807 5806 5806 5805 5805 5804 5804 5803 5802 5801 5800 5799 5798 5797 5796 5795 5794 5794 5793 5792 5791 5790 5789 5788 5787 5786 5785 5784 5783 5782 5781 5780 5778 5777 5777
5824 5824 5824 5824 5823 5823 5825 5825 5823 5823 5822 5821 5820 5820 5822 5821 5820 5821 5821 5821 5821 5821 5822 5822 5821 5821 5821 5820 5819 5819 5818 5818 5818 5819 5819 5818 5817 5816 5815 5814 5814 5814 5813 5813 5812 5811 5811 5810 5810 5809 5808 5808 5807 5806 5806 5805 5805 5804 5804 5803 5802 5801 5800 5799 5799 5798 5797 5796 5795 5794 5793 5792 5791 5791 5790 5789 5788 5787 5785 5784 5783 5782 5781 5780 5779 5778
5823 5825 5825 5825 5824 5824 5826 5826 5824 5824 5823 5822 5821 5822 5823 5822 5822 5822 5822 5823 5822 5822 5822 5821 5821 5821 5821 5820 5820 5820 5820 5820 5820 5820 5820 5819 5817 5816 5815 5814 5814 5814 5813 5813 5812 5811 5811 5810 5810 5809 5809 5808 5807 5807 5806 5806 5805 5805 5804 5804 5803 5802 5801 5801 5800 5799 5798 5797 5796 5795 5794 5793 5792 5791 5791 5790 5789 5788 5787 5786 5785 5784 5782 5781 5780 5779
5824 5826 5827 5826 5826 5826 5826 5826 5825 5825 5824 5822 5822 5823 5823 5823 5823 5823 5823 5823 5822 5822 5822 5821 5821 5822 5822 5822 5821 5821 5821 5821 5821 5821 5820 5819 5818 5816 5815 5815 5814 5814 5814 5813 5812 5812 5811 5811 5810 5810 5809 5808 5808 5807 5807 5806 5806 5805 5805 5804 5803 5803 5802 5801 5801 5800 5799 5798 5797 5796 5795 5794 5793 5792 5791 5790 5789 5789 5788 5787 5786 5785 5784 5783 5782 5781
5826 5827 5828 5827 5827 5826 5827 5827 5826 5826 5825 5823 5824 5824 5824 5824 5823 5823 5823 5822 5822 5822 5822 5822 5822 5822 5823 5822 5821 5821 5822 5821 5821 5821 5821 5820 5819 5817 5816 5815 5815 5815 5815 5814 5813 5813 5812 5812 5811 5810 5809 5809 5808 5808 5807 5807 5806 5806 5805 5804 5804 5803 5802 5802 5801 5800 5799 5799 5798 5797 5796 5795 5794 5793 5792 5791 5790 5789 5788 5787 5787 5786 5785 5784 5783 5782
5827 5828 5827 5826 5826 5826 5827 5827 5827 5827 5826 5825 5825 5825 5825 5824 5823 5823 5822 5823 5823 5823 5823 5822 5822 5823 5823 5822 5821 5821 5821 5821 5821 5821 5821 5820 5820 5818 5816 5815 5815 5815 5815 5814 5814 5813 5812 5812 5812 5811 5810 5809 5808 5808 5807 5807 5806 5806 5805 5804 5804 5803 5803 5802 5801 5801 5800 5799 5798 5797 5796 5795 5794 5793 5793 5792 5791 5790 5789 5788 5787 5787 5786 5785 5784 5783
5827 5828 5828 5826 5826 5826 5827 5827 5827 5827 5827 5826 5825 5824 5825 5825 5824 5824 5823 5824 5824 5824 5823 5823 5823 5823 5823 5822 5821 5821 5821 5821 5821 5822 5821 5821 5820 5818 5816 5815 5815 5815 5815 5815 5814 5813 5812 5812 5811 5811 5810 5809 5808 5808 5808 5807 5807 5806 5805 5805 5804 5804 5803 5802 5802 5801 5800 5799 5799 5798 5797 5796 5795 5794 5793 5792 5792 5791 5790 5789 5788 5788 5787 5786 5785 5784
5826 5827 5828 5827 5827 5827 5827 5828 5828 5828 5828 5828 5827 5827 5827 5826 5826 5826 5825 5825 5825 5825 5824 5824 5824 5823 5823 5822 5822 5822 5822 5822 5821 5821 5821 5821 5820 5818 5816 5816 5816 5816 5815 5815 5814 5813 5813 5812 5811 5811 5810 5810 5809 5809 5808 5807 5807 5806 5806 5805 5805 5804 5803 5803 5802 5801 5801 5800 5799 5798 5798 5797 5796 5795 5794 5793 5793 5792 5791 5790 5789 5788 5787 5787 5786 5785
5825 5826 5827 5827 5828 5829 5829 5828 5828 5828 5829 5830 5830 5829 5828 5828 5828 5827 5826 5826 5826 5825 5825 5825 5824 5823 5823 5823 5823 5823 5822 5822 5821 5821 5821 5822 5821 5819 5817 5816 5816 5816 5816 5814 5814 5813 5813 5813 5812 5811 5811 5810 5810 5809 5809 5808 5807 5807 5806 5806 5805 5805 5804 5803 5803 5802 5801 5801 5800 5799 5798 5798 5797 5796 5795 5794 5794 5793 5792 5791 5790 5789 5788 5787 5786 5785
5825 5826 5827 5827 5828 5829 5829 5828 5828 5828 5828 5829 5830 5830 5829 5829 5829 5828 5827 5827 5826 5826 5825 5825 5824 5824 5824 5824 5823 5823 5822 5821 5821 5821 5822 5822 5822 5820 5818 5817 5817 5816 5815 5814 5814 5814 5813 5813 5812 5812 5811 5811 5810 5809 5809 5808 5808 5807 5807 5806 5806 5805 5805 5804 5803 5803 5802 5801 5800 5800 5799 5799 5798 5797 5796 5795 5794 5794 5793 5792 5791 5790 5789 5788 5787 5786
5825 5826 5826 5827 5827 5828 5829 5828 5828 5828 5828 5828 5829 5830 5829 5830 5830 5829 5828 5827 5827 5826 5826 5825 5825 5824 5824 5824 5823 5823 5822 5821 5821 5821 5822 5822 5822 5820 5818 5818 5817 5815 5814 5814 5814 5814 5813 5813 5812 5812 5811 5811 5810 5810 5809 5809 5808 5808 5807 5807 5806 5806 5805 5805 5804 5803 5803 5802 5801 5801 5800 5800 5799 5798 5797 5796 5796 5795 5794 5793 5792 5791 5790 5789 5788 5786
5825 5826 5826 5827 5827 5828 5828 5828 5828 5828 5828 5827 5828 5828 5829 5829 5829 5828 5828 5827 5827 5827 5826 5825 5825 5824 5824 5825 5824 5824 5822 5821 5821 5821 5821 5822 5821 5819 5818 5818 5817 5815 5815 5815 5814 5814 5813 5813 5813 5812 5811 5811 5810 5810 5809 5809 5809 5808 5808 5807 5807 5806 5806 5805 5805 5804 5804 5803 5802 5802 5801 5801 5800 5799 5799 5798 5797 5796 5795 5794 5793 5792 5790 5789 5788 5787
5825 5826 5826 5826 5827 5827 5828 5828 5827 5827 5827 5827 5827 5828 5829 5829 5828 5828 5827 5827 5827 5826 5825 5825 5824 5823 5823 5824 5824 5823 5822 5821 5821 5821 5821 5821 5821 5820 5819 5818 5817 5817 5816 5815 5814 5814 5814 5813 5813 5812 5812 5811 5810 5810 5810 5809 5809 5809 5808 5808 5807 5807 5806 5806 5805 5805 5805 5804 5803 5803 5802 5802 5801 5800 5800 5799 5798 5797 5796 5795 5794 5793 5792 5790 5789 5788
5825 5825 5825 5826 5826 5827 5827 5827 5827 5827 5827 5827 5827 5828 5828 5828 5828 5827 5827 5827 5826 5825 5825 5824 5823 5822 5822 5823 5823 5822 5822 5821 5821 5821 5821 5820 5821 5821 5820 5818 5818 5817 5816 5815 5814 5814 5814 5813 5813 5812 5812 5812 5811 5810 5810 5810 5809 5809 5808 5808 5807 5807 5807 5806 5806 5806 5805 5805 5804 5803 5803 5802 5801 5801 5800 5799 5798 5797 5796 5795 5794 5793 5792 5791 5790 5788
5824 5824 5825 5825 5826 5826 5826 5826 5826 5826 5826 5826 5827 5827 5827 5827 5827 5827 5827 5826 5825 5824 5824 5823 5822 5821 5821 5822 5821 5821 5821 5822 5822 5822 5821 5820 5820 5821 5819 5818 5817 5816 5816 5815 5814 5814 5814 5813 5813 5813 5812 5812 5811 5811 5810 5810 5809 5809 5808 5808 5808 5807 5807 5807 5806 5806 5806 5805 5804 5804 5803 5802 5801 5801 5800 5799 5798 5797 5796 5796 5795 5794 5792 5791 5790 5788
5824 5824 5824 5824 5825 5825 5825 5825 5825 5825 5825 5826 5826 5825 5826 5827 5826 5826 5826 5825 5824 5823 5823 5822 5821 5820 5821 5821 5821 5821 5822 5823 5823 5823 5822 5821 5821 5820 5819 5818 5817 5816 5816 5815 5815 5814 5814 5814 5813 5813 5812 5812 5811 5811 5810 5810 5809 5809 5808 5808 5807 5807 5807 5807 5806 5806 5806 5805 5804 5804 5803 5802 5801 5801 5800 5799 5798 5797 5796 5795 5794 5793 5791 5790 5789 5787
5822 5823 5823 5823 5823 5824 5824 5824 5824 5825 5825 5825 5825 5825 5825 5826 5826 5825 5825 5824 5823 5822 5822 5821 5820 5820 5821 5821 5821 5821 5822 5823 5823 5823 5822 5821 5821 5820 5819 5818 5817 5816 5816 5815 5815 5815 5814 5814 5813 5813 5812 5812 5811 5811 5810 5810 5809 5809 5808 5808 5807 5807 5807 5806 5806 5805 5805 5804 5804 5803 5803 5802 5801 5800 5799 5798 5797 5797 5795 5794 5793 5791 5790 5789 5788 5786
5822 5822 5822 5822 5822 5823 5823 5823 5823 5824 5824 5824 5824 5824 5824 5825 5825 5825 5825 5823 5822 5822 5821 5820 5820 5820 5820 5820 5820 5821 5822 5822 5823 5823 5822 5821 5820 5819 5819 5818 5817 5816 5816 5815 5815 5815 5814 5814 5813 5813 5812 5812 5811 5811 5810 5810 5809 5809 5808 5808 5807 5807 5806 5806 5806 5805 5805 5804 5804 5803 5802 5801 5800 5799 5798 5798 5797 5796 5794 5793 5792 5790 5789 5788 5786 5785
5821 5821 5821 5821 5821 5822 5822 5822 5822 5823 5823 5823 5824 5824 5824 5824 5824 5824 5824 5823 5821 5821 5820 5820 5819 5819 5819 5820 5820 5820 5820 5821 5822 5822 5821 5820 5820 5819 5819 5818 5817 5816 5815 5815 5815 5814 5814 5813 5812 5812 5811 5811 5810 5810 5810 5809 5809 5809 5808 5807 5807 5807 5806 5806 5805 5805 5804 5804 5803 5802 5801 5800 5799 5798 5798 5797 5796 5794 5793 5792 5790 5789 5787 5786 5785 5783
5820 5820 5820 5820 5820 5820 5820 5821 5822 5822 5822 5822 5822 5823 5824 5824 5824 5824 5824 5823 5821 5820 5819 5819 5819 5819 5819 5819 5819 5819 5819 5819 5820 5821 5820 5819 5819 5819 5819 5818 5817 5816 5815 5815 5815 5814 5813 5812 5812 5811 5810 5810 5810 5809 5809 5809 5808 5808 5808 5807 5807 5806 5806 5805 5805 5804 5803 5803 5802 5801 5800 5799 5798 5797 5796 5795 5794 5793 5792 5790 5789 5787 5786 5784 5783 5782
5819 5819 5819 5819 5820 5819 5819 5820 5821 5821 5821 5821 5821 5822 5823 5823 5824 5824 5824 5823 5821 5820 5819 5819 5819 5818 5818 5818 5818 5818 5818 5818 5819 5819 5819 5819 5819 5818 5819 5818 5817 5817 5816 5816 5815 5814 5813 5812 5812 5811 5810 5810 5809 5809 5808 5808 5808 5808 5807 5806 5806 5805 5805 5804 5803 5803 5802 5802 5801 5800 5799 5798 5797 5796 5795 5794 5793 5792 5790 5789 5787 5786 5784 5783 5781 5780
5817 5818 5818 5818 5818 5818 5818 5819 5819 5820 5820 5820 5820 5821 5822 5822 5822 5822 5823 5822 5821 5820 5819 5819 5818 5818 5818 5818 5818 5818 5818 5818 5818 5818 5819 5819 5818 5818 5818 5818 5818 5817 5817 5816 5815 5814 5813 5812 5812 5811 5810 5810 5809 5808 5808 5807 5807 5806 5806 5805 5804 5804 5803 5803 5802 5802 5801 5801 5800 5799 5798 5797 5796 5795 5794 5793 5792 5791 5789 5788 5786 5784 5782 5781 5779 5778
5815 5816 5816 5816 5816 5816 5817 5818 5818 5819 5819 5819 5819 5820 5820 5820 5820 5821 5821 5821 5820 5820 5819 5819 5819 5819 5819 5818 5818 5818 5818 5818 5818 5818 5818 5818 5818 5817 5817 5817 5817 5817 5816 5816 5815 5814 5813 5813 5812 5811 5810 5809 5809 5808 5807 5806 5806 5805 5804 5804 5803 5803 5802 5802 5802 5801 5801 5800 5799 5798 5797 5796 5795 5794 5794 5792 5791 5789 5788 5786 5784 5783 5781 5779 5777 5776
5813 5814 5814 5814 5814 5815 5816 5817 5817 5817 5818 5817 5817 5818 5818 5818 5818 5819 5819 5820 5819 5819 5819 5819 5819 5819 5818 5818 5818 5818 5818 5818 5818 5817 5817 5817 5817 5817 5816 5816 5816 5816 5816 5815 5814 5814 5814 5813 5812 5811 5810 5810 5809 5808 5807 5806 5805 5804 5804 5803 5803 5803 5802 5802 5801 5801 5800 5799 5798 5797 5796 5795 5794 5793 5792 5791 5789 5787 5786 5784 5783 5781 5779 5778 5776 5774
5811 5812 5812 5812 5813 5814 5814 5815 5816 5816 5816 5816 5816 5817 5817 5817 5817 5817 5818 5818 5818 5818 5818 5818 5818 5818 5818 5818 5818 5818 5818 5817 5817 5817 5817 5817 5817 5817 5816 5816 5815 5815 5815 5814 5814 5813 5813 5812 5811 5811 5810 5809 5808 5807 5806 5806 5805 5805 5804 5804 5803 5803 5802 5802 5801 5800 5799 5798 5797 5796 5795 5794 5793 5792 5790 5789 5787 5786 5785 5783 5782 5780 5778 5776 5774 5773
5808 5809 5809 5810 5811 5812 5812 5813 5814 5814 5814 5814 5815 5815 5815 5815 5815 5816 5816 5817 5816 5816 5816 5817 5817 5817 5818 5817 5817 5818 5818 5817 5817 5816 5816 5817 5817 5816 5816 5815 5815 5814 5814 5814 5813 5812 5811 5811 5810 5809 5808 5807 5807 5806 5805 5805 5805 5804 5804 5803 5802 5801 5801 5801 5800 5798 5798 5797 5796 5795 5794 5793 5791 5790 5789 5788 5787 5785 5784 5782 5780 5778 5776 5774 5772 5770
5806 5807 5807 5808 5809 5810 5811 5811 5812 5813 5813 5813 5813 5813 5814 5814 5814 5814 5814 5815 5815 5814 5814 5815 5815 5816 5816 5816 5816 5816 5816 5816 5815 5815 5815 5816 5816 5815 5815 5814 5814 5813 5813 5812 5812 5811 5810 5809 5809 5808 5807 5806 5807 5807 5806 5805 5804 5803 5803 5802 5801 5800 5799 5799 5798 5797 5796 5795 5793 5793 5791 5790 5789 5789 5788 5786 5785 5783 5782 5780 5778 5776 5773 5771 5768 5766
5805 5805 5805 5806 5808 5808 5809 5810 5811 5811 5812 5812 5812 5812 5812 5813 5813 5813 5813 5813 5814 5813 5813 5813 5813 5813 5813 5813 5813 5814 5814 5814 5813 5813 5814 5814 5814 5814 5814 5813 5813 5812 5811 5811 5810 5810 5809 5808 5809 5809 5808 5807 5807 5807 5806 5805 5804 5803 5802 5802 5800 5799 5798 5798 5797 5796 5795 5793 5792 5791 5790 5788 5788 5787 5785 5784 5782 5780 5778 5776 5774 5771 5769 5766 5765 5763
5804 5804 5804 5805 5806 5807 5808 5808 5809 5809 5809 5810 5810 5810 5810 5811 5811 5811 5811 5811 5812 5812 5811 5811 5811 5811 5811 5810 5811 5811 5812 5812 5812 5812 5812 5812 5813 5813 5812 5812 5811 5811 5809 5809 5808 5808 5808 5808 5808 5809 5808 5808 5807 5806 5805 5804 5803 5803 5802 5801 5800 5799 5798 5796 5795 5794 5793 5792 5790 5789 5788 5786 5785 5784 5782 5779 5777 5775 5773 5771 5770 5768 5766 5764 5762 5760
5801 5802 5802 5803 5804 5805 5805 5806 5806 5806 5806 5807 5808 5809 5809 5809 5809 5810 5810 5810 5810 5810 5809 5809 5810 5809 5809 5809 5809 5809 5810 5810 5810 5810 5810 5810 5810 5810 5810 5810 5810 5809 5808 5807 5806 5805 5806 5806 5806 5806 5805 5805 5803 5802 5802 5801 5801 5800 5799 5798 5797 5797 5795 5794 5792 5791 5790 5789 5788 5786 5785 5783 5782 5781 5778 5775 5772 5771 5769 5768 5767 5766 5764 5761 5759 5757
5798 5799 5800 5801 5802 5803 5803 5803 5803 5802 5803 5804 5806 5807 5807 5807 5807 5808 5808 5808 5808 5808 5808 5807 5807 5807 5807 5808 5808 5808 5808 5808 5808 5808 5808 5807 5807 5808 5808 5808 5808 5808 5807 5805 5804 5804 5803 5803 5802 5802 5801 5800 5799 5797 5797 5796 5795 5794 5793 5792 5792 5792 5791 5790 5789 5788 5787 5785 5784 5783 5781 5780 5778 5776 5774 5771 5769 5768 5767 5766 5764 5763 5761 5758 5755 5753
5796 5797 5797 5798 5799 5800 5800 5800 5800 5800 5801 5803 5804 5804 5804 5805 5805 5805 5805 5806 5806 5806 5806 5805 5805 5805 5805 5806 5806 5807 5807 5807 5807 5807 5806 5806 5805 5805 5806 5806 5806 5806 5806 5804 5804 5803 5802 5801 5800 5800 5799 5798 5797 5795 5795 5794 5792 5792 5791 5790 5789 5788 5788 5786 5785 5784 5783 5781 5779 5778 5776 5774 5773 5772 5770 5768 5767 5765 5764 5762 5761 5759 5757 5754 5751 5748
5793 5794 5795 5795 5796 5797 5797 5797 5797 5798 5799 5800 5801 5802 5802 5802 5802 5803 5803 5803 5803 5803 5803 5803 5802 5802 5803 5804 5804 5805 5805 5805 5806 5806 5806 5805 5804 5803 5804 5804 5803 5804 5803 5803 5802 5802 5801 5800 5799 5798 5798 5797 5796 5795 5794 5794 5792 5791 5790 5789 5787 5786 5785 5784 5782 5781 5779 5777 5775 5773 5771 5770 5769 5768 5767 5765 5764 5762 5760 5758 5756 5754 5752 5749 5746 5744
5791 5791 5792 5793 5794 5794 5794 5794 5794 5795 5796 5796 5798 5799 5799 5800 5800 5800 5801 5801 5801 5801 5801 5801 5800 5800 5801 5802 5802 5803 5803 5803 5804 5804 5804 5803 5802 5802 5802 5801 5801 5801 5801 5800 5800 5800 5799 5798 5797 5796 5796 5795 5794 5794 5793 5792 5791 5789 5788 5787 5785 5784 5782 5781 5780 5778 5777 5775 5773 5771 5769 5768 5767 5765 5764 5762 5760 5758 5756 5754 5752 5750 5747 5745 5742 5739
5788 5789 5789 5790 5791 5791 5792 5791 5791 5792 5792 5793 5795 5796 5797 5797 5797 5798 5798 5798 5797 5798 5799 5800 5799 5798 5798 5799 5800 5800 5801 5801 5801 5802 5802 5801 5800 5799 5799 5799 5799 5798 5798 5797 5797 5796 5796 5795 5794 5794 5793 5793 5792 5791 5790 5788 5787 5786 5785 5784 5782 5781 5780 5778 5777 5776 5775 5773 5771 5769 5768 5766 5764 5762 5760 5758 5756 5754 5752 5750 5748 5745 5743 5740 5737 5734
5785 5786 5786 5787 5787 5788 5788 5788 5788 5788 5789 5790 5792 5793 5793 5794 5794 5795 5795 5794 5794 5795 5796 5797 5797 5797 5797 5797 5796 5797 5797 5797 5798 5798 5798 5798 5797 5797 5797 5797 5796 5796 5795 5794 5794 5793 5792 5791 5790 5790 5789 5789 5788 5787 5786 5785 5783 5782 5781 5780 5779 5778 5777 5776 5775 5773 5772 5770 5768 5766 5764 5762 5760 5758 5756 5754 5752 5750 5748 5745 5743 5740 5737 5733 5730 5728
5781 5781 5782 5783 5783 5784 5785 5785 5785 5786 5786 5788 5789 5788 5789 5790 5791 5792 5792 5791 5792 5793 5793 5793 5794 5794 5795 5795 5794 5794 5794 5793 5794 5794 5794 5795 5794 5794 5794 5794 5794 5793 5792 5791 5791 5790 5789 5788 5787 5786 5786 5785 5784 5783 5782 5780 5779 5778 5777 5776 5775 5774 5774 5773 5771 5770 5768 5765 5763 5761 5760 5759 5756 5754 5751 5750 5747 5745 5742 5740 5737 5733 5731 5727 5723 5720
5777 5777 5777 5778 5778 5780 5781 5781 5782 5783 5784 5785 5785 5785 5785 5786 5787 5788 5788 5788 5790 5791 5790 5790 5791 5791 5792 5792 5792 5792 5791 5791 5790 5790 5791 5791 5791 5791 5792 5792 5791 5791 5790 5789 5788 5787 5786 5785 5784 5784 5783 5781 5780 5779 5778 5777 5776 5775 5774 5773 5772 5771 5770 5768 5767 5765 5763 5761 5759 5757 5756 5754 5751 5749 5747 5745 5742 5739 5736 5734 5730 5727 5724 5721 5717 5713
5773 5773 5773 5774 5775 5776 5777 5777 5778 5780 5780 5781 5782 5782 5782 5782 5782 5783 5784 5785 5786 5787 5787 5787 5787 5788 5789 5789 5789 5789 5788 5788 5787 5787 5787 5787 5787 5788 5788 5789 5788 5788 5787 5786 5785 5784 5783 5782 5782 5781 5780 5779 5777 5776 5775 5774 5773 5772 5771 5770 5769 5767 5766 5764 5762 5760 5758 5756 5755 5753 5751 5749 5746 5744 5741 5739 5736 5733 5730 5727 5723 5720 5718 5714 5711 5707
5769 5769 5769 5770 5771 5772 5772 5773 5774 5775 5776 5776 5777 5778 5778 5779 5779 5779 5780 5781 5782 5783 5783 5783 5783 5784 5784 5785 5785 5785 5784 5784 5784 5784 5784 5784 5784 5784 5784 5785 5785 5785 5784 5783 5783 5782 5781 5780 5779 5778 5777 5776 5775 5773 5772 5771 5770 5769 5768 5766 5765 5764 5762 5759 5757 5755 5753 5751 5750 5748 5746 5743 5741 5738 5735 5733 5730 5727 5724 5720 5717 5713 5711 5708 5705 5701
5764 5765 5766 5767 5767 5768 5768 5769 5770 5770 5771 5773 5774 5774 5774 5775 5775 5775 5776 5778 5779 5780 5780 5780 5780 5780 5780 5781 5780 5780 5780 5780 5780 5781 5781 5781 5781 5780 5780 5781 5781 5781 5781 5780 5780 5779 5778 5777 5775 5774 5773 5772 5771 5770 5769 5768 5767 5765 5764 5762 5761 5760 5757 5755 5752 5750 5749 5747 5744 5742 5740 5737 5735 5733 5730 5727 5724 5721 5717 5714 5710 5707 5704 5701 5699 5695
5760 5761 5762 5763 5763 5764 5765 5765 5766 5767 5767 5769 5771 5771 5771 5771 5772 5772 5772 5774 5775 5776 5776 5777 5777 5777 5777 5778 5778 5777 5778 5777 5777 5777 5777 5777 5777 5776 5776 5776 5776 5776 5776 5776 5775 5775 5774 5772 5771 5770 5769 5768 5767 5766 5765 5764 5763 5761 5759 5758 5756 5754 5752 5749 5746 5745 5744 5743 5740 5737 5735 5732 5729 5727 5724 5721 5717 5714 5711 5708 5704 5700 5698 5695 5692 5689
5755 5756 5757 5758 5758 5759 5760 5761 5761 5763 5763 5764 5766 5767 5767 5768 5768 5768 5768 5769 5770 5770 5771 5772 5772 5773 5773 5774 5774 5774 5774 5774 5774 5774 5773 5773 5772 5772 5771 5771 5771 5771 5771 5770 5770 5769 5769 5768 5767 5766 5765 5764 5763 5762 5761 5760 5758 5756 5755 5753 5751 5748 5746 5743 5741 5739 5739 5737 5735 5732 5729 5726 5723 5721 5718 5715 5711 5708 5705 5702 5698 5695 5692 5689 5686 5683
5749 5750 5752 5753 5754 5755 5756 5756 5757 5759 5759 5760 5761 5761 5762 5764 5764 5764 5764 5764 5764 5765 5766 5766 5767 5768 5768 5769 5769 5769 5769 5769 5769 5769 5769 5769 5769 5768 5768 5767 5766 5766 5766 5765 5765 5764 5764 5763 5762 5762 5761 5759 5758 5757 5756 5755 5753 5751 5749 5747 5745 5742 5740 5738 5737 5735 5733 5731 5728 5726 5723 5720 5717 5715 5712 5708 5705 5702 5699 5695 5692 5689 5686 5683 5679 5676
5744 5745 5746 5747 5748 5750 5751 5752 5753 5754 5755 5755 5756 5757 5758 5759 5759 5759 5759 5759 5759 5760 5761 5761 5761 5762 5763 5763 5763 5764 5764 5764 5764 5764 5764 5764 5764 5764 5764 5763 5762 5762 5761 5761 5760 5759 5759 5759 5758 5757 5756 5754 5753 5752 5751 5749 5748 5746 5743 5741 5739 5737 5735 5733 5732 5731 5728 5725 5723 5720 5717 5714 5711 5709 5705 5702 5698 5696 5692 5689 5685 5683 5680 5676 5672 5669
5738 5740 5741 5742 5743 5744 5746 5747 5748 5749 5750 5750 5751 5752 5753 5753 5754 5755 5755 5756 5756 5756 5756 5756 5756 5757 5757 5757 5758 5759 5759 5759 5759 5759 5759 5759 5759 5759 5758 5758 5757 5757 5756 5755 5755 5754 5754 5754 5753 5752 5750 5749 5748 5746 5745 5743 5742 5740 5738 5735 5734 5733 5731 5728 5726 5724 5722 5719 5717 5714 5711 5708 5705 5701 5698 5695 5692 5688 5685 5681 5678 5675 5673 5669 5666 5662
5733 5734 5735 5736 5737 5739 5740 5741 5742 5743 5744 5745 5746 5746 5747 5748 5749 5749 5750 5750 5750 5751 5751 5751 5752 5752 5753 5752 5752 5753 5753 5754 5754 5754 5754 5754 5754 5754 5753 5752 5752 5751 5751 5750 5749 5749 5749 5748 5747 5746 5744 5743 5742 5741 5739 5738 5736 5734 5732 5730 5729 5727 5726 5723 5720 5718 5715 5712 5710 5707 5704 5701 5698 5694 5691 5688 5685 5682 5678 5675 5672 5668 5665 5661 5658 5655
5727 5728 5728 5730 5731 5732 5734 5735 5736 5737 5738 5739 5740 5740 5741 5742 5743 5743 5744 5744 5744 5745 5745 5746 5746 5747 5747 5747 5747 5747 5748 5748 5749 5749 5748 5748 5748 5748 5748 5748 5747 5747 5746 5745 5744 5744 5744 5743 5742 5740 5738 5737 5736 5735 5733 5732 5730 5728 5726 5724 5723 5721 5719 5716 5713 5711 5708 5705 5702 5700 5697 5694 5691 5688 5685 5681 5678 5675 5671 5668 5665 5662 5658 5654 5650 5648
5721 5721 5722 5724 5725 5726 5728 5729 5730 5731 5732 5732 5733 5734 5735 5736 5737 5737 5738 5739 5739 5739 5739 5740 5740 5741 5742 5742 5741 5742 5742 5742 5742 5742 5742 5742 5742 5743 5743 5743 5743 5742 5742 5741 5740 5740 5739 5738 5736 5734 5733 5731 5730 5729 5727 5725 5723 5721 5719 5717 5715 5713 5711 5708 5706 5703 5700 5698 5695 5693 5690 5687 5684 5681 5678 5675 5672 5669 5665 5661 5657 5654 5651 5648 5644 5641